Regional Weather Roundup
Issued by NWS Newport/Morehead, NC

Current Version | Previous Version | Text Only | Print | Product List | Glossary Off
Versions: 1 2 3 4 5 6 7 8 9 10 11 12 13 14 15 16 17 18 19 20 21 22 23 24 25 26 27 28 29 30 31 32 33 34 35 36 37 38 39 40 41 42 43 44 45 46 47 48 49 50
000 ASUS42 KMHX 261412 RWRMHX WEATHER ROUNDUP FOR EASTERN NORTH CAROLINA NATIONAL WEATHER SERVICE NEWPORT/MOREHEAD CITY NC 900 AM EST THU FEB 26 2015 NOTE: "FAIR" INDICATES FEW OR NO CLOUDS BELOW 12,000 FEET WITH NO SIGNIFICANT WEATHER AND/OR OBSTRUCTIONS TO VISIBILITY NCZ015>017-031-032-045>047-102-103-261500- NORTH COAST CITY SKY/WX TMP DP RH WIND PRES REMARKS EDENTON CLOUDY 33 32 94 N17G25 29.71R ELIZABETH CITY NOT AVBL KITTY HAWK RAIN 35 35 100 N23G37 29.61R MANTEO CLOUDY 36 34 93 N29G44 29.60S $$ NCZ045>047-081-094-103-104-261500- CENTRAL COAST CITY SKY/WX TMP DP RH WIND PRES REMARKS FRISCO LGT RAIN 38 37 97 N13G28 29.55R FOG SWANQUARTER N/A 36 N/A N/A N7G29 29.59R $$ NCZ095-097-098-100-101-261500- SOUTHERN COAST CITY SKY/WX TMP DP RH WIND PRES REMARKS BEAUFORT CLOUDY 36 35 96 N21G29 29.65R CEDAR ISLAND N/A 36 N/A N/A NW31 29.65R JACKSONVILLE CLOUDY 36 33 89 N20 29.69R PINEY ISLAND N/A N/A N/A N/A MISG 29.62R WILMINGTON CLOUDY 36 33 89 N15G22 29.71R $$ NCZ011>013-027>030-043-044-078>080-089-090>093-098-261500- COASTAL PLAIN CITY SKY/WX TMP DP RH WIND PRES REMARKS AHOSKIE MIX PCPN 32 30 92 N12 29.76S CLINTON CLOUDY 34 33 95 N12 29.76R ELIZABETHTOWN CLOUDY 35 34 96 N5 29.76R GOLDSBORO CLOUDY 33 33 99 N12G18 29.72R GREENVILLE CLOUDY 34 32 93 N17G24 29.76R FOG HAVELOCK CLOUDY 36 33 89 N16G23 29.67R FOG KENANSVILLE CLOUDY 34 33 96 N13G24 29.74R KINSTON CLOUDY 34 32 93 N20 29.73R NEW BERN LGT RAIN 35 33 92 N14G24 29.69R RICHLANDS CLOUDY 34 30 86 N13G18 29.71R ROCKY MOUNT NOT AVBL WASHINGTON CLOUDY 33 32 95 N20 29.70R WHITEVILLE CLOUDY 36 32 88 N8 29.75R $$ AMZ130-135-150-152-154-156-158-170-250-252-270-ANZ085-086-088-633-658-670-261500- MARINE OBSERVATIONS STATION/POSITION TIME TEMP WIND PRES WAVE SWELL AIR SEA DIR/SP/G HT/PER HT/PER (UTC) (F) (DEG/KT/KT) (MB) (FT/S) (FT/S) CHESAPEAKE LIGHT 1300 33 10/ 32/ 38 1005.1 64 E VA BEACH 1350 46 53 20/ 31/ 39 1000.7 10/ 8 DUCK 1300 34 35 1001.7 2 E DUCK 1311 35 N/A 8/ 7 2/11 10 NE DUCK 1322 38 N/A 8/ 7 2/11 OREGON INLET 1300 38 36 340/ 16/ 25 1000.7 HATTERAS CG 1300 40 47 340/ 25/ 29 999.4 CAPE LOOKOUT 1400 37 340/ 22/ 27 1002.9 BEAUFORT LAB 1300 37 41 360/ 17/ 23 1000.6 27 SE WRIGHTSVLE NOT AVBL 5 SE WRIGHTSVLE NOT AVBL 225 S CAPE HAT 1350 74 71 220/ 31/ 39 1004.3 14/ 8 2/16 41 SE CHARLESTON 1350 45 66 310/ 19/ 25 1006.2 9/ 9 5/ 9 $$

USA.gov is the U.S. government's official web portal to all federal, state and local government web resources and services.